Powrót do katalogu

ARIANE 42P+ DEB

AktywnyHEO
NORAD 26850·DEBRIS·🇫🇷 France

Wystrzelony Oct 28, 1992 z Guiana Space Centre

Loading…

Następne Przeloty (najbliższe 24 godziny)

TLE

ŚwieżeSource: Space-Track

Epoka: Sep 13, 2026, 06:18 UTC

1 26850U 92072K   26256.26274392  .00000574  00000-0  41287-1 0  9996
2 26850   7.2672 131.8742 6452047 169.1390 217.6557  2.89973903286177

Śledź ARIANE 42P+ DEB w czasie rzeczywistym z AllMySat

Download on the App Store